STARLINK-34342, 64271

Orbit data source: Space-Track

STARLINK-34342, 64271 is a payload satellite owned by SpaceX/Seattle (US) in LEO that was launched on Wed, 04 Jun 2025 UTC via an FALCON 9 launch vehicle from the Air Force Western Test Range (AFWTR). Payload-class satellites include a variety of spacecraft equipped with specific instruments for various scientific and technological missions. These include communications satellites like Starlink; space stations such as the ISS; scientific satellites like the Hubble; Earth observation satellites from companies like Planet Labs, Umbra, and HawkEye 360; GPS; miniature CubeSats for education and research; and military/defense satellites.

Loading next visibility...
Identifier
64271, 2025-120R
Orbit
LEO
Country
Flag of USUS
Related business
Manufacturer
SpaceX/Seattle
Mission
Operational Commercial Communications
Bus & Motor
STARLINK V2MO, Unknown motor
Mass
575 kg wet, ~530 kg dry
Launch date (UTC)
2025-06-04 (1 year ago)
Launch vehicle
FALCON 9
Launch site
Air Force Western Test Range (AFWTR)
Object type
Payload
Rocket body
Debris
Shape & HBR
Box + 2 Pan, 17.7 m
Radar Cross Section
36.964 m², Large (>1 m²)

Expand to show TLE details & history
Last TLE update: 23 hours ago

TLE from 23 hours ago
0 STARLINK-34342
1 64271U 25120R   26170.89798895  .00022934  00000-0  78382-3 0  9990
2 64271  53.1591   2.0215 0000998  98.9453 261.1661 15.30209545 59517
Epoch: 2026-06-19T21:33Z
TLE epoch observation values (Epoch: 2026-06-19T21:33:06.245Z)
Latitude
0.00001°
Longitude
130.62512°
Altitude
476.191 km
Speed
7.629 km/s
True Right ascension
00h 08m 05s
True Declination
0° 00' 00"
Sunlit
Object was in daylight at epoch
Visualization orbit readout
Latitude
Unknown
Longitude
Unknown
Altitude
Unknown
Speed
Unknown
Apparent Right ascension
Unknown
Apparent Declination
Unknown
Sunlit
N/A
Visualization observer readout
Local Sidereal Time
07:12:00
Azimuth
Unknown
Elevation
Unknown
Doppler factor
Unknown
Orbital elements
Apogee altitude
476.127 km
Perigee altitude
474.759 km
Semi-major axis
6,853.58 km
Eccentricity
0.0001
Inclination
53.1591°
RAAN
2.0215°
Arg. of periapsis
98.9453°
True anomaly
261.1548°
Mean anomaly
261.1661°
Eccentric anomaly
261.16045°
Mean motion
3.82531 °/min
Orbital period
94.11 mins
BSTAR
0.00078382
Loading maneuver chart data...
Computing Atmospheric mass density...
Loading historical data...
Loading historical data...
Loading historical data...
Loading historical data...
Loading historical data...
Loading historical data...
Loading historical data...

Documentation

Showing up to 5 results
|